Terug naar catalogus

CZ-6A DEB

ActiefPO
NORAD 61141·DEBRIS·🇨🇳 China

Gelanceerd Aug 6, 2024 vanaf Taiyuan Satellite Launch Center

Loading…

Volgende Passages (komende 24 uur)

TLE

VersSource: Space-Track

Epoch: Sep 14, 2026, 07:02 UTC

1 61141U 24140QK  26257.29355065  .00003564  00000-0  10207-2 0  9991
2 61141  88.4813 213.6128 0097824  82.6234 278.6072 14.42020438108262

Volg CZ-6A DEB in realtime met AllMySat

Download on the App Store